Back to catalog

FENGYUN 1C DEB

AliveSSO
NORAD 29896·DEBRIS·🇨🇳 China

Launched May 10, 1999 from Taiyuan Satellite Launch Center

Loading…

Next Passes (next 24 hours)

TLE

FreshSource: Space-Track

Epoch: Sep 13, 2026, 15:19 UTC

1 29896U 99025GS  26256.63829449  .00000326  00000-0  36884-3 0  9998
2 29896  99.3927 145.4639 0239410 113.6630 315.9953 13.65620814977943

Track FENGYUN 1C DEB in real time with AllMySat

Download on the App Store